Ardmore, OK

3:11 PM CDT on May 23, 2017 (GMT -0500)
Ardmore Municipal

Weather History for KADM - February, 2011

Change the Weather History Date:

Friday, February 25, 2011

  Actual Average Record
Temperature  
Mean Temperature 42 °F -  
Max Temperature 50 °F 55 °F 80 °F (2008)
Min Temperature 33 °F 37 °F 17 °F (2003)
Degree Days  
Heating Degree Days 24    
Moisture  
Dew Point 32 °F    
Average Humidity 82    
Maximum Humidity 93    
Minimum Humidity 54    
Precipitation  
Precipitation 0.00 in - - ()
Sea Level Pressure  
Sea Level Pressure 30.07 in    
Wind  
Wind Speed 9 mph (NNE)    
Max Wind Speed 15 mph    
Max Gust Speed 21 mph    
Visibility 10 miles    
Events      
Averages and records for this station are not official NWS values.
T = Trace of Precipitation, MM = Missing Value Source: NWS Daily Summary

Daily Weather History Graph

Daily Weather History Graph

Search for Another Location

Airport or City:

Trip Planner

Search our weather history database for the weather conditions in past years. The results will help you decide how hot, cold, wet, or windy it might be!

Date:

Astronomy

Feb. 25, 2011 Rise Set
Actual Time 7:02 AM CST 6:20 PM CST
Civil Twilight 6:36 AM CST 6:45 PM CST
Nautical Twilight 6:07 AM CST 7:15 PM CST
Astronomical Twilight 5:38 AM CST 7:44 PM CST
Moon 1:54 AM CST (2/25) 11:54 AM CST (2/25)
Length of Visible Light 12h 09m
Length of Day
11h 18m
Last Quarter, 42% of the Moon is Illuminated
Feb 25
Last Quarter
Mar 4
New
Mar 12
First Quarter
Mar 19
Full
Mar 26
Last Quarter

Hourly Weather History & Observations

Time (CST) Temp. Windchill Dew Point Humidity Pressure Visibility Wind Dir Wind Speed Gust Speed Precip Events Conditions
12:10 AM 37.4 °F 29.3 °F 32.0 °F 81% 30.03 in 10.0 mi NNW 12.7 mph - N/A   Overcast
12:30 AM 37.4 °F 31.4 °F 32.0 °F 81% 30.03 in 10.0 mi NNW 8.1 mph - N/A   Overcast
12:50 AM 37.4 °F 30.8 °F 32.0 °F 81% 30.03 in 10.0 mi NNW 9.2 mph 17.3 mph N/A   Overcast
1:10 AM 35.6 °F 27.5 °F 32.0 °F 87% 30.05 in 10.0 mi North 11.5 mph - N/A   Mostly Cloudy
1:30 AM 35.6 °F 26.2 °F 32.0 °F 87% 30.05 in 10.0 mi North 15.0 mph 20.7 mph N/A   Overcast
1:50 AM 37.4 °F 28.9 °F 32.0 °F 81% 30.05 in 10.0 mi North 13.8 mph 17.3 mph N/A   Overcast
2:30 AM 35.6 °F 26.6 °F 32.0 °F 87% 30.07 in 10.0 mi North 13.8 mph 17.3 mph N/A   Overcast
2:50 AM 35.6 °F 27.5 °F 32.0 °F 87% 30.06 in 10.0 mi North 11.5 mph 19.6 mph N/A   Overcast
3:10 AM 35.6 °F 29.2 °F 32.0 °F 87% 30.06 in 10.0 mi North 8.1 mph - N/A   Overcast
3:30 AM 35.6 °F 28.0 °F 32.0 °F 87% 30.07 in 10.0 mi North 10.4 mph - N/A   Overcast
3:50 AM 35.6 °F 28.6 °F 32.0 °F 87% 30.08 in 10.0 mi North 9.2 mph - N/A   Overcast
4:10 AM 35.6 °F 29.2 °F 32.0 °F 87% 30.09 in 10.0 mi North 8.1 mph - N/A   Overcast
4:50 AM 35.6 °F 29.9 °F 32.0 °F 87% 30.10 in 10.0 mi North 6.9 mph - N/A   Overcast
5:10 AM 35.6 °F 28.0 °F 32.0 °F 87% 30.11 in 10.0 mi North 10.4 mph - N/A   Overcast
5:30 AM 35.6 °F 29.2 °F 32.0 °F 87% 30.12 in 10.0 mi North 8.1 mph - N/A   Overcast
5:50 AM 35.6 °F 28.0 °F 32.0 °F 87% 30.12 in 10.0 mi NNE 10.4 mph - N/A   Overcast
6:30 AM 35.6 °F 29.9 °F 32.0 °F 87% 30.14 in 10.0 mi NNE 6.9 mph - N/A   Overcast
6:55 AM 35.6 °F 29.9 °F 30.2 °F 81% 30.14 in 10.0 mi North 6.9 mph - N/A   Overcast
10:55 AM 39.2 °F 34.2 °F 32.0 °F 75% 30.20 in 10.0 mi NE 6.9 mph - N/A   Overcast
2:55 PM 50.0 °F - 33.8 °F 54% 30.07 in 10.0 mi SSW 3.5 mph - N/A   Clear
4:55 PM 50.0 °F - 35.6 °F 58% 30.01 in 10.0 mi East 8.1 mph - N/A   Clear
5:55 PM 50.0 °F - 35.6 °F 58% 30.01 in 10.0 mi East 5.8 mph - N/A   Clear
6:55 PM 42.8 °F 41.1 °F 33.8 °F 70% 30.02 in 10.0 mi ENE 3.5 mph - N/A   Clear
7:55 PM 39.2 °F 35.9 °F 33.8 °F 81% 30.04 in 10.0 mi ENE 4.6 mph - N/A   Clear
10:30 PM 35.6 °F 32.8 °F 32.0 °F 87% 30.02 in 7.0 mi NE 3.5 mph - N/A   Scattered Clouds
10:50 PM 33.8 °F - 32.0 °F 93% 30.02 in 7.0 mi Calm Calm - N/A   Clear
11:10 PM 33.8 °F - 32.0 °F 93% 30.02 in 7.0 mi Calm Calm - N/A   Clear
11:30 PM 33.8 °F 30.8 °F 32.0 °F 93% 30.02 in 7.0 mi ENE 3.5 mph - N/A   Scattered Clouds